Regional Weather Roundup
Issued by NWS

Home | Current Version | Previous Version | Graphics & Text | Print | Product List | Glossary On
Versions: 1 2 3 4 5 6 7 8 9 10 11 12 13 14 15 16 17 18 19 20 21 22 23 24 25 26 27 28 29 30 31 32 33 34 35 36 37 38 39 40 41 42 43 44 45 46 47 48 49 50
000
ASUS45 KBOU 311107
RWRCO

WEATHER ROUNDUP FOR COLORADO
NATIONAL WEATHER SERVICE DENVER/BOULDER CO
500 AM MDT THU JUL 31 2014

NOTE: "FAIR" INDICATES FEW OR NO CLOUDS BELOW 12000 FEET WITH NO
SIGNIFICANT WEATHER AND/OR OBSTRUCTIONS TO VISIBILITY.

COZ001>005-013-030-031-311200-
...NORTHWEST COLORADO...

CITY           SKY/WX    TMP DP  RH WIND       PRES   REMARKS
CRAIG          CLOUDY    51  51 100 CALM      30.30S
HAYDEN         CLOUDY    54  48  82 NE5       30.31F
MEEKER         CLOUDY    56  53  90 CALM      30.31S
MOUNT WERNER   NOT AVBL
STEAMBOAT SPGS CLOUDY    51  49  93 CALM      30.33R
WALDEN         CLOUDY    50  45  81 CALM      30.41S
$$

COZ006>008-011-311200-
...WEST CENTRAL VALLEYS...

CITY           SKY/WX    TMP DP  RH WIND       PRES   REMARKS
GRAND JUNCTION CLEAR     60  57  89 NE3       30.18S
MONTROSE       CLEAR     59  53  80 SE6       30.26S
EAGLE          CLOUDY    55  55 100 CALM      30.33F
RIFLE          CLEAR     57  54  89 E6        30.24S
DELTA          CLEAR     62  55  76 NE6       30.22S
NUCLA          CLEAR     59  52  77 SE5       30.27F
$$

COZ017>023-064>068-311200-
...SOUTHWEST COLORADO...

CITY           SKY/WX    TMP DP  RH WIND       PRES   REMARKS
DURANGO        MOCLDY    57  48  72 NE6       30.28R
CORTEZ         CLEAR     54  50  86 NE5       30.22S
PAGOSA SPRINGS CLEAR     55  46  72 CALM      30.37R
TELLURIDE      CLEAR     52  48  87 SE6       30.44F
WOLF CREEK PAS NOT AVBL
$$

COZ009-010-012-014-032>034-037-058>063-311200-
...CENTRAL COLORADO...

CITY           SKY/WX    TMP DP  RH WIND       PRES   REMARKS
ASPEN          CLOUDY    52  50  93 CALM      30.37S
BUENA VISTA    CLOUDY    52  51  95 SE6       30.42S
COPPER MTN     CLOUDY    46  41  81 S10       30.62S
BERTHOUD PASS  CLOUDY    37  37 100 W8        30.65S
COTTONWOOD PAS FOG       50  46  87 CALM      30.51S VSB 3/4
GUNNISON       PTCLDY    52  45  76 NE5       30.39S
KREMMLING      CLOUDY    54  50  87 CALM      30.38S
LEADVILLE      CLOUDY    46  45  96 S3        30.49S
MONARCH PASS   FOG       45  43  93 W10       30.73R VSB<1/4
SALIDA         NOT AVBL
SUNLIGHT       PTCLDY    48  46  93 CALM      30.55F
WILKERSON PASS LGT RAIN  43  41  93 SW8       30.60R VSB 3/4
$$

COZ069>075-311200-
...SAN LUIS VALLEY/SANGRE DE CRISTO MOUNTAINS...

CITY           SKY/WX    TMP DP  RH WIND       PRES   REMARKS
ALAMOSA        CLOUDY    55  54  96 SE5       30.37F
LA VETA PASS   PTCLDY    45  43  93 CALM      30.52S FOG
SAGUACHE       CLOUDY    54  52  94 CALM      30.40S
$$

COZ035-036-038>040-311200-
...NORTHERN COLORADO FRONT RANGE...

CITY           SKY/WX    TMP DP  RH WIND       PRES   REMARKS
DENVER INTL AP CLOUDY    58  56  93 SE6       30.28S
DMNS CITY PARK   N/A     57  56  95 SW1       30.27S
AURORA         MOCLDY    56  56  99 SE2       30.29F
FRONT RANGE AP CLOUDY    59  57  94 SE6       30.29S
ERIE MUNI ARPT CLOUDY    58  57  96 CALM      30.28R
BOULDER MUN AP CLOUDY    55  55 100 CALM      30.28S
CENTENNIAL     CLOUDY    56  53  90 CALM      30.30R
BROOMFIELD     CLOUDY    57  55  94 CALM      30.30S
FORT COLLINS   MOCLDY    59  57  94 CALM      30.29S
LONGMONT       MOCLDY    60  58  95 CALM      30.29S
$$

COZ041-046-047-076>085-087-088-311200-
...PIKES PEAK/PALMER DIVIDE AND SOUTHERN FOOTHILLS...

CITY           SKY/WX    TMP DP  RH WIND       PRES   REMARKS
COLO. SPRINGS  CLOUDY    57  55  93 S9        30.33F FOG
A. F. ACADEMY  CLOUDY    55  55 100 S7        30.34S
ELLICOTT       CLOUDY    56  54  93 SW7       30.32F
FALCON         CLOUDY    54  53  99 S6        30.36F FOG
FORT CARSON    CLOUDY    56  56 100 S6        30.32F
LIMON          CLOUDY    56  54  93 E3        30.29F
MONUMENT HILL  MOCLDY    50  50 100 S9        30.34S
TRINIDAD       FOG       55  54  96 CALM      30.31F VSB 1/4
$$

COZ042>045-048>051-090-091-311200-
...NORTHEAST COLORADO...

CITY           SKY/WX    TMP DP  RH WIND       PRES   REMARKS
GREELEY ARPT   NOT AVBL
AKRON          CLOUDY    58  56  93 W5        30.25F
BURLINGTON     CLEAR     53  51  93 W6        30.25F
WRAY             N/A    N/A N/A N/A W3        30.21S
STERLING       CLOUDY    61  61 100 SW5       30.23S FOG
HOLYOKE        PTCLDY    59  55  88 W5        30.21S
FORT MORGAN    CLOUDY    58  57  96 CALM      30.26S
$$

COZ086-089-092>099-311200-
...SOUTHEAST COLORADO...

CITY           SKY/WX    TMP DP  RH WIND       PRES   REMARKS
PUEBLO         CLOUDY    60  59  96 E5        30.27F
LA JUNTA       PTCLDY    59  58  96 SW3       30.26S
LAMAR          CLOUDY    58  57  97 S3        30.22F
SPRINGFIELD      N/A     52  52 100 NW5       30.27S
$$


USA.gov is the U.S. government's official web portal to all federal, state and local government web resources and services.